Tracking 28052 objects as of 21-Sep-2023
HD Live streaming from Space Station
objects crossing your sky now

STARLINK-5494

Track STARLINK-5494 now!
10-day predictions
STARLINK-5494 is classified as:


NORAD ID: 55650
Int'l Code: 2023-021Y
Perigee: 576.7 km
Apogee: 581.7 km
Inclination: 70.0 °
Period: 96.1 minutes
Semi major axis: 6950 km
RCS: Unknown
Launch date: February 17, 2023
Source: United States (US)
Launch site: AIR FORCE WESTERN TEST RANGE (AFWTR)
Your satellite tracking list
Your tracking list is empty




NASA's NSSDC Master Catalog

Two Line Element Set (TLE):
1 55650U 23021Y   23264.11025544 -.00000328  00000-0 -19661-4 0  9990
2 55650  69.9986 295.1194 0003582 270.0338  90.0411 14.98328906 33597
Source of the keplerian elements: AFSPC